Burnet, TX

11:53 AM CDT on April 25, 2018 (GMT -0500)
Burnet Municipal-Craddock

Weather History for KBMQ - March, 2011

Change the Weather History Date:

Sunday, March 27, 2011

  Actual Average Record
Temperature  
Mean Temperature 57 °F -  
Max Temperature 66 °F 69 °F 84 °F (2014)
Min Temperature 48 °F 49 °F 41 °F (2001)
Degree Days  
Heating Degree Days 8    
Growing Degree Days 7 (Base 50)    
Moisture  
Dew Point 46 °F    
Average Humidity 72    
Maximum Humidity 93    
Minimum Humidity 46    
Precipitation  
Precipitation 0.00 in - - ()
Sea Level Pressure  
Sea Level Pressure 29.83 in    
Wind  
Wind Speed 8 mph (NE)    
Max Wind Speed 10 mph    
Max Gust Speed 20 mph    
Visibility 9 miles    
Events Rain    
Averages and records for this station are not official NWS values.
T = Trace of Precipitation, MM = Missing Value Source: NWS Daily Summary

Daily Weather History Graph

Daily Weather History Graph

Search for Another Location

Airport or City:

Astronomy

Mar. 27, 2011 Rise Set
Actual Time 7:28 AM CDT 7:48 PM CDT
Civil Twilight 7:04 AM CDT 8:12 PM CDT
Nautical Twilight 6:36 AM CDT 8:41 PM CDT
Astronomical Twilight 6:07 AM CDT 9:09 PM CDT
Moon 3:17 AM CDT (3/27) 1:55 PM CDT (3/27)
Length of Visible Light 13h 08m
Length of Day
12h 20m
Last Quarter, 38% of the Moon is Illuminated
Mar 27
Last Quarter
Apr 3
New
Apr 11
First Quarter
Apr 17
Full
Apr 24
Last Quarter

Hourly Weather History & Observations

Time (CDT) Temp. Dew Point Humidity Pressure Visibility Wind Dir Wind Speed Gust Speed Precip Events Conditions
12:53 AM 64.0 °F 43.0 °F 46% 29.75 in 10.0 mi NE 9.2 mph - N/A   Scattered Clouds
1:53 AM 60.1 °F 43.0 °F 53% 29.75 in 10.0 mi NNE 10.4 mph 18.4 mph N/A   Partly Cloudy
2:53 AM 57.9 °F 43.0 °F 58% 29.74 in 10.0 mi NNE 9.2 mph 19.6 mph N/A   Scattered Clouds
4:40 AM 55.4 °F 42.8 °F 63% 29.77 in 10.0 mi NE 8.1 mph - N/A   Overcast
4:53 AM 55.0 °F 43.0 °F 64% 29.72 in 10.0 mi NE 9.2 mph - N/A   Overcast
5:53 AM 55.0 °F 44.1 °F 67% 29.75 in 10.0 mi NNE 8.1 mph - N/A   Overcast
6:50 AM 53.6 °F 44.6 °F 72% 29.80 in 10.0 mi NNE 8.1 mph - N/A   Overcast
6:53 AM 54.0 °F 44.1 °F 69% 29.76 in 10.0 mi NE 10.4 mph - N/A   Overcast
7:53 AM 53.1 °F 44.1 °F 71% 29.79 in 10.0 mi NE 8.1 mph - N/A   Overcast
9:01 AM 50.0 °F 46.4 °F 87% 29.86 in 4.0 mi NE 8.1 mph - N/A   Overcast
9:20 AM 48.2 °F 46.4 °F 93% 29.87 in 2.5 mi NNE 5.8 mph - N/A   Overcast
9:53 AM 48.9 °F 46.9 °F 93% 29.85 in 3.0 mi NNE 6.9 mph - 0.00 in Rain Light Rain
11:28 AM 50.0 °F 46.4 °F 87% 29.88 in 9.0 mi NE 10.4 mph - 0.00 in   Overcast
11:53 AM 52.0 °F 46.9 °F 83% 29.86 in 8.0 mi NNE 10.4 mph - 0.00 in   Overcast
12:08 PM 53.6 °F 48.2 °F 82% 29.88 in 9.0 mi NNE 6.9 mph - N/A   Overcast
12:29 PM 53.6 °F 48.2 °F 82% 29.88 in 8.0 mi NNE 10.4 mph - N/A   Overcast
12:53 PM 55.0 °F 46.9 °F 74% 29.86 in 8.0 mi NNE 5.8 mph - N/A   Overcast
1:53 PM 57.9 °F 48.0 °F 70% 29.84 in 8.0 mi North 6.9 mph - N/A   Overcast
2:44 PM 59.0 °F 48.2 °F 67% 29.85 in 7.0 mi NE 4.6 mph - N/A   Overcast
2:53 PM 59.0 °F 48.9 °F 69% 29.83 in 7.0 mi ENE 4.6 mph - N/A   Overcast
3:53 PM 61.0 °F 48.9 °F 64% 29.81 in 9.0 mi NE 3.5 mph - N/A   Overcast
5:53 PM 66.0 °F 48.9 °F 54% 29.81 in 10.0 mi NE 8.1 mph - N/A   Partly Cloudy
7:53 PM 57.9 °F 46.9 °F 67% 29.86 in 10.0 mi NE 8.1 mph - N/A   Clear
8:53 PM 55.0 °F 46.0 °F 72% 29.88 in 10.0 mi NE 6.9 mph - N/A   Clear
9:53 PM 52.0 °F 44.1 °F 74% 29.91 in 10.0 mi NE 6.9 mph - N/A   Clear
10:53 PM 48.9 °F 44.1 °F 83% 29.94 in 10.0 mi NE 8.1 mph - N/A   Clear
11:53 PM 48.0 °F 43.0 °F 83% 29.93 in 10.0 mi ENE 4.6 mph - N/A   Clear